Preview of NWS' New Version of Forecast
This preview is not operational and should not be used for support decisions.

Regional Weather Roundup (RWR)

Issued by National Weather Service (NWS)

                            
000
ASUS45 KABQ 211101
RWRNM 
NEW MEXICO REGIONAL WEATHER ROUNDUP
NATIONAL WEATHER SERVICE ALBUQUERQUE NM
500 AM MDT WED AUG 21 2019

NOTE: "FAIR" MEANS FEW OR NO CLOUDS BELOW 12,000 FEET AGL WITH NO
       SIGNIFICANT WEATHER OR OBSTRUCTIONS TO VISION.

      THIS PRODUCT IS RELEASED AS TWO VERSIONS.  ONE VERSION NEAR
      THE TOP OF THE HOUR CONTAINING PRELIMINARY DATA FROM ALBUQUERQUE
      AND OTHER STATIONS.  A FINAL VERSION WITH ADDITIONAL DATA IS 
      ISSUED ABOUT 10 MINUTES AFTER THE HOUR.
 
NMZ501-503-504-510>518-211200-
NORTHWEST PLATEAU/NORTHCENTRAL MOUNTAINS
  
CITY           SKY/WX    TMP DP  RH WIND       PRES   REMARKS
FARMINGTON     FAIR      71  43  36 E8        30.14S                  
LOS ALAMOS       N/A     65  41  42 CALM      30.32S                  
SANTA FE       FAIR      58  42  55 N5        30.26S                  
TAOS             N/A     50  43  77 E5        30.34R                  
ANGEL FIRE     FAIR      36  34  92 CALM      30.43S                  

$$
NMZ402-403-502-505>509-211200-
WESTCENTRAL MOUNTAINS/SOUTHWEST MOUNTAINS
  
CITY           SKY/WX    TMP DP  RH WIND       PRES   REMARKS
GALLUP         FAIR      68  43  40 W6        30.24R                  
GRANTS         FAIR      58  46  63 CALM      30.27S                  
SILVER CITY    FAIR      64  48  56 NW5       30.20S                  

$$
NMZ407-409-411-412-211200-
SOUTHERN DESERTS
  
CITY           SKY/WX    TMP DP  RH WIND       PRES   REMARKS
DEMING         FAIR      70  59  68 NE7       30.10S                  
LAS CRUCES     FAIR      74  49  41 NE5       30.12S                  
HOLLOMAN AFB   FAIR      65  57  74 CALM      30.12F                  
ALAMOGORDO     FAIR      68  55  64 N3        30.12S                  
T OR C         FAIR      75  50  41 CALM      30.14S                  

$$
NMZ519>523-211200-
CENTRAL VALLEYS/CENTRAL HIGHLANDS
  
CITY           SKY/WX    TMP DP  RH WIND       PRES   REMARKS
ALBUQUERQUE    FAIR      67  48  50 E5        30.18F                  
CLINES CORNERS FAIR      57  43  59 SW9       30.32R                  
BELEN          FAIR      63  45  51 CALM      30.18S                  
SOCORRO        FAIR      67  49  52 W3        30.14F                  

$$
NMZ524>526-539-540-211200-
SOUTHCENTRAL MOUNTAINS
  
CITY           SKY/WX    TMP DP  RH WIND       PRES   REMARKS
RUIDOSO        FAIR      63  45  51 SW3       30.33S                  

$$
NMZ527>531-211200-
NORTHEAST HIGHLANDS/NORTHEAST PLAINS
  
CITY           SKY/WX    TMP DP  RH WIND       PRES   REMARKS
LAS VEGAS      FAIR      52  44  74 S6        30.28S                  
RATON          FAIR      53  43  68 E9        30.23S                  
CLAYTON        FAIR      64  49  57 SW8       30.12S                  

$$
NMZ532>537-211200-
EASTCENTRAL PLAINS
  
CITY           SKY/WX    TMP DP  RH WIND       PRES   REMARKS
SANTA ROSA     FAIR      64  51  62 S5        30.14R                  
TUCUMCARI      FAIR      74  53  48 W5        30.07R                  
CANNON AFB     FAIR      70  53  55 S7        30.13S                  
CLOVIS AIRPORT FAIR      63  55  75 S8        30.13S                  

$$
NMZ028-029-538-211200-
SOUTHEAST PLAINS
  
CITY           SKY/WX    TMP DP  RH WIND       PRES   REMARKS
ROSWELL        FAIR      77  54  44 SE5       30.07S                  
ARTESIA        FAIR      77  55  47 SE8       30.09S                  
CARLSBAD       FAIR      75  53  46 S5        30.05S                  
HOBBS          FAIR      70  55  60 S6        30.11S                  


$$